Regional Weather Roundup
Issued by NWS Kansas City/Pleasant Hill, MO

Home | Current Version | Previous Version | Text Only | Print | Product List | Glossary On
Versions: 1 2 3 4 5 6 7 8 9 10 11 12 13 14 15 16 17 18 19 20 21 22 23 24 25 26 27
000
ASUS43 KEAX 200810
RWREAX

WEATHER ROUNDUP FOR EASTERN KANSAS AND NORTHWEST MISSOURI
NATIONAL WEATHER SERVICE KANSAS CITY/PLEASANT HILL MO
200 AM CST TUE FEB 20 2018

KSZ040-057-103>105-MOZ028-029-037-043-200900-
...KANSAS CITY METROPOLITAN AREA...

CITY           SKY/WX    TMP DP  RH WIND       PRES   REMARKS
K.C. INTL      FRZ DRZL  30  29  96 NW8       29.83R FOG     WCI  22
K.C. DOWNTOWN  LGT RAIN  33  30  88 NW9       29.84R WCI  25
LEES SUMMIT    MIX PCPN  32  32 100 NW12      29.83R FOG     WCI  23
OLATHE - IXD   CLOUDY    30  30 100 NW12      29.82R FOG     WCI  20
OLATHE - OJC   CLOUDY    31  31 100 N7        29.81S FOG     WCI  24
LAWRENCE       CLOUDY    30  29  96 NW9       29.83F FOG     WCI  22

$$

MOZ001>008-011>017-020>025-030>033-038>040-044>046-053-054-200900-
...NORTHERN AND CENTRAL MISSOURI...

CITY           SKY/WX    TMP DP  RH WIND       PRES   REMARKS
ST. JOSEPH     CLOUDY    28  28 100 NW10      29.87S WCI  19
MOSBY          LGT RAIN  32  32 100 NW8       29.83R WCI  25
WARRENSBURG    CLOUDY    36  34  93 NW5       29.80R WCI  32
WHITEMAN AFB   CLOUDY    38  36  95 E6        29.73F FOG     WCI  33
CLINTON        CLOUDY    39  39 100 NE5       29.79S
SEDALIA        CLOUDY    42  42 100 NW9       29.81R
WARSAW         NOT AVBL
CHILLICOTHE      N/A     34  33  96 CALM      29.80F
KIRKSVILLE     HVY RAIN  37  37 100 E10       29.78F FOG     WCI  30

$$

MOZ041-047>049-056>058-063>065-088>090-097-200900-
...EASTERN AND SOUTHERN MISSOURI...

CITY           SKY/WX    TMP DP  RH WIND       PRES   REMARKS
ST. LOUIS INTL CLOUDY    67  59  75 S16G24    29.86R
SPIRIT OF STL  CLOUDY    69  59  70 S15G23    29.82F
COLUMBIA       LGT RAIN  62  59  90 S12       29.77F
JEFFERSON CITY TSTM      67  58  72 S14       29.79S
ROLLA          CLOUDY    66  57  72 S23G31    29.83F
OSAGE BEACH    CLOUDY    65  57  75 S16G23    29.80S
SPRINGFIELD    CLOUDY    67  55  65 S23G36    29.82R
BRANSON        MOCLDY    66  55  68 S10G21    29.88R
JOPLIN         CLOUDY    65  59  81 S23G39    29.78R
WEST PLAINS    CLOUDY    68  56  65 S14G31    29.93S

$$

IAZ060-094-KSZ022-034>040-054-083-096-NEZ052-066-093-200900-
...KANSAS...SOUTHEAST NEBRASKA AND IOWA...

CITY           SKY/WX    TMP DP  RH WIND       PRES   REMARKS
TOPEKA         CLOUDY    28  27  96 N7        29.83F WCI  21
MANHATTAN      CLOUDY    28  25  88 VRB3      29.87R FOG
EMPORIA        CLOUDY    28  26  92 NE9       29.79F FOG     WCI  19
CHANUTE        FOG       36  35  96 N8        29.79S VSB 3/4 WCI  30
WICHITA        CLOUDY    29  28  96 N13       29.80R FOG     WCI  19
OMAHA          FLURRIES  22  18  85 N14       29.89R WCI   9
LINCOLN        LGT SNOW  21  19  92 NW13      29.91R FOG     WCI   9
FALLS CITY     FRZ RAIN  27  24  89 N9        29.84S FOG     WCI  18
LAMONI         FRZ RAIN  29  27  92 W16       29.87R FOG     WCI  17
DES MOINES     TSTM      28  26  92 NW12      29.81R FOG     WCI  18

$$





USA.gov is the U.S. government's official web portal to all federal, state and local government web resources and services.